[[{"header":{"parameterUnit":"m.s-1","parameterCategory":1,"la1":30.2991,"la2":30.254,"lo1":-89.0895,"lo2":-89.0444,"dy":0.0017,"dx":0.0017,"nx":28,"ny":28,"refTime":"2023-03-30T15:00:00:Z","depth":0,"parameterNumber":2,"parameterNumberName":"U-component_of_WINDS"},"data":[0,0,0,0,0,0,0,0,0,0,0,0,0,0,0,0,0,0,0,0,0,0,0,0,0,0,0,0,0,0,0,0,0,0,0,0,0,0,0,0,0,0,0,0,0,0,0,0,0,0,0,0,0,0,0,0,0,0,1.8506,1.8507,0,1.8524,1.8524,1.8525,1.8493,1.8492,1.8491,1.849,1.8512,1.8513,1.8515,0,0,0,0,0,0,0,0,0,0,0,0,0,1.8449,1.845,1.8506,1.8507,1.8507,1.8524,1.8524,1.8525,1.8493,1.8492,1.849,1.8489,1.8511,1.8513,1.8515,0,0,0,0,0,0,0,0,0,0,0,0,0,1.8471,1.8451,1.8506,1.8493,1.8492,1.8524,1.8524,1.8525,1.8493,1.8492,1.849,1.8489,1.8511,1.8513,1.8515,1.8563,0,0,1.8523,1.8524,0,0,0,0,0,0,0,0,1.847,1.8473,1.8495,1.8494,1.8493,1.8504,1.8512,1.8538,1.8494,1.8493,1.849,1.8488,1.8511,1.8513,1.852,1.8564,1.8565,1.8523,1.8524,1.8526,1.8526,0,0,0,0,0,0,0,1.8468,1.8472,1.8514,1.8495,1.8494,1.8487,1.8489,1.8517,1.8511,1.8493,1.8491,1.8493,1.851,1.8518,1.8521,1.8565,1.8523,1.8525,1.8527,1.8528,1.8649,1.8651,0,0,0,0,0,0,1.8468,1.8471,1.8513,1.8514,1.8477,1.849,1.8491,1.8503,1.8511,1.851,1.8494,1.8491,1.8515,1.8518,1.8521,1.8577,1.8525,1.8528,1.8529,1.8647,1.8649,1.8651,0,0,0,0,0,0,1.8467,1.8472,1.8512,1.8492,1.8497,1.8492,1.8505,1.8504,1.8511,1.8512,1.8511,1.8503,1.8514,1.8518,1.8552,1.8578,1.8529,1.8531,1.8645,1.8648,1.865,1.869,0,0,0,0,0,0,1.8465,1.8472,1.8489,1.8493,1.8498,1.8542,1.8507,1.8505,1.8515,1.8512,1.852,1.8519,1.8513,1.8549,1.8555,1.858,1.8533,1.8643,1.8646,1.8649,1.8687,1.8694,1.87,0,0,0,0,0,1.8463,1.85,1.849,1.8495,1.8519,1.8544,1.8547,1.8537,1.8517,1.8535,1.8535,1.8519,1.8574,1.8553,1.8559,1.8586,1.8641,1.8645,1.8649,1.8684,1.8692,1.87,0,0,0,0,0,0,1.8501,1.85,1.8489,1.8527,1.8536,1.8538,1.856,1.8547,1.8561,1.8558,1.8546,1.8548,1.8586,1.8589,1.8565,1.8632,1.8604,1.861,1.8628,1.8637,1.8644,1.8642,1.8535,0,0,0,0,0,1.8513,1.8532,1.8531,1.8565,1.857,1.8564,1.8575,1.8566,1.8575,1.8579,1.8581,1.8591,1.8611,1.8624,1.8642,1.8687,1.8689,1.8708,1.8715,1.872,1.8726,1.875,1.8759,1.8664,1.8664,1.8664,0,0,1.8539,1.8542,1.8554,1.8573,1.8578,1.8599,1.8567,1.8591,1.8607,1.8583,1.8615,1.8618,1.8628,1.8668,1.8686,1.8672,1.8752,1.8726,1.873,1.8732,1.8755,1.8764,1.8772,1.8667,1.8667,1.8666,0,0,1.8598,1.8601,1.863,1.8636,1.8644,1.864,1.8647,1.8652,1.8652,1.8684,1.8666,1.8686,1.872,1.8728,1.8737,1.8799,1.8785,1.8805,1.8841,1.8865,1.8872,1.8879,1.8902,1.891,1.881,1.881,1.881,0,1.863,1.866,1.8647,1.8672,1.8681,1.8659,1.8689,1.8696,1.871,1.8717,1.8701,1.8743,1.8749,1.879,1.8806,1.8813,1.8822,1.8804,1.8872,1.8879,1.8885,1.8906,1.8915,1.8813,1.8812,1.8812,1.8812,0,1.87,1.8721,1.8743,1.8756,1.8768,1.8795,1.8788,1.8802,1.8792,1.8791,1.8824,1.883,1.8849,1.8858,1.885,1.8899,1.8891,1.8874,1.8846,1.8896,1.8917,1.8925,1.8816,1.8815,1.8814,1.8814,0,0,1.8782,1.8788,1.8796,1.8802,1.8809,1.8826,1.8853,1.887,1.8882,1.8893,1.8916,1.8945,1.8929,1.8939,1.8932,1.8953,1.9003,1.8933,1.8934,1.8947,1.9059,1.9072,1.9081,1.8993,1.8995,1.8996,1.9058,0,1.8841,1.8886,1.8876,1.892,1.894,1.892,1.8943,1.8951,1.895,1.8968,1.8968,1.8988,1.8966,1.8972,1.8992,1.8992,1.9025,1.8988,1.9016,1.9017,1.9014,1.9092,1.9106,1.9164,1.9066,1.9067,1.9068,0,1.8916,1.8928,1.8974,1.8979,1.8987,1.9008,1.9023,1.904,1.9049,1.9047,1.9058,1.9046,1.9075,1.9046,1.9085,1.906,1.9071,1.9073,1.9075,1.9078,1.9046,1.9097,1.9182,1.9191,1.908,1.9079,1.9078,0,1.8972,1.9,1.9032,1.9038,1.9043,1.9059,1.9062,1.9069,1.908,1.9094,1.9102,1.9119,1.9129,1.9143,1.9137,1.9117,1.9178,1.9148,1.9178,1.9178,1.9192,1.9192,1.928,1.9199,1.9199,1.9198,1.9198,0,1.9039,1.9069,1.9057,1.9077,1.911,1.9098,1.9131,1.9132,1.9139,1.9159,1.9143,1.9163,1.9153,1.9173,1.9169,1.9202,1.9207,1.9207,1.9205,1.9209,1.9209,1.9216,1.9212,1.9201,1.92,1.92,1.9199,0,1.9108,1.9101,1.9135,1.9137,1.9138,1.9163,1.9165,1.9184,1.9182,1.9208,1.9214,1.9211,1.9233,1.9228,1.9253,1.925,1.9292,1.9286,1.9289,1.9288,1.9318,1.9315,1.9414,1.9427,1.9337,1.9338,1.9339,0,1.9151,1.9173,1.9178,1.919,1.9194,1.9213,1.9224,1.9214,1.9227,1.9238,1.9256,1.9277,1.9292,1.9329,1.933,1.9349,1.9343,1.9377,1.9346,1.9349,1.9344,1.9343,1.9346,1.9383,1.9384,1.9385,1.9386,0,1.9229,1.9225,1.9241,1.9256,1.9269,1.9281,1.9291,1.9302,1.9292,1.9308,1.9329,1.9341,1.9366,1.9387,1.9405,1.941,1.9397,1.9395,1.9403,1.9407,1.9408,1.9408,1.9306,1.9393,1.9392,1.9392,1.9391,1.9391,1.9287,1.9306,1.9312,1.933,1.9337,1.9347,1.9364,1.9364,1.9382,1.94,1.9393,1.9419,1.9428,1.945,1.9457,1.9477,1.9465,1.9476,1.9479,1.9482,1.9486,1.9404,1.948,1.948,1.948,1.948,1.948,0,1.9365,1.9367,1.9384,1.9399,1.9413,1.9398,1.9409,1.9423,1.9445,1.9454,1.9469,1.9495,1.9515,1.9517,1.9537,1.9553,1.9547,1.9558,1.9557,1.9559,1.9496,1.9487,1.9562,1.9562,1.9562,1.9562,1.9562,1.9562,1.9407,1.9438,1.9434,1.9469,1.9472,1.9495,1.9503,1.9512,1.9519,1.9548,1.9564,1.9565,1.9572,1.9592,1.961,1.961,1.9619,1.9632,1.963,1.9571,1.9563,1.9555,1.9547,1.9634,1.9634,1.9691,1.9692,1.9692]},{"header":{"parameterUnit":"m.s-1","parameterCategory":1,"la1":30.2991,"la2":30.254,"lo1":-89.0895,"lo2":-89.0444,"dy":0.0017,"dx":0.0017,"nx":28,"ny":28,"refTime":"2023-03-30T15:00:00:Z","depth":0,"parameterNumber":3,"parameterNumberName":"V-component_of_WINDS"},"data":[0,0,0,0,0,0,0,0,0,0,0,0,0,0,0,0,0,0,0,0,0,0,0,0,0,0,0,0,0,0,0,0,0,0,0,0,0,0,0,0,0,0,0,0,0,0,0,0,0,0,0,0,0,0,0,0,0,0,2.8823,2.8825,0,2.8964,2.8966,2.8968,2.9013,2.9012,2.9012,2.9011,2.9158,2.9162,2.9166,0,0,0,0,0,0,0,0,0,0,0,0,0,2.8595,2.8599,2.8823,2.8825,2.8827,2.8964,2.8966,2.8968,2.9013,2.9012,2.9012,2.9011,2.9156,2.9161,2.9167,0,0,0,0,0,0,0,0,0,0,0,0,0,2.8711,2.8601,2.8823,2.8866,2.8871,2.8964,2.8966,2.8969,2.9013,2.9012,2.9011,2.9011,2.9154,2.9161,2.9168,2.9229,0,0,2.9188,2.9191,0,0,0,0,0,0,0,0,2.8705,2.872,2.8858,2.8863,2.8869,2.897,2.894,2.9056,2.9014,2.8959,2.9011,2.901,2.9096,2.9108,2.9136,2.9235,2.9242,2.9189,2.9193,2.9196,2.9198,0,0,0,0,0,0,0,2.8696,2.8714,2.8879,2.886,2.8867,2.8879,2.8894,2.8962,2.9032,2.8964,2.8968,2.8984,2.9099,2.913,2.914,2.9244,2.9189,2.9195,2.9199,2.9201,2.9403,2.9404,0,0,0,0,0,0,2.8681,2.8707,2.8875,2.8883,2.8783,2.8884,2.8901,2.8939,2.9031,2.9044,2.8984,2.8985,2.9119,2.9132,2.9145,2.9225,2.9196,2.9202,2.9206,2.9401,2.9403,2.9404,0,0,0,0,0,0,2.8676,2.8695,2.8869,2.8796,2.8819,2.8889,2.8931,2.8942,2.8973,2.9046,2.9059,2.9003,2.9118,2.9136,2.9208,2.923,2.9205,2.9211,2.94,2.9402,2.9404,2.9382,0,0,0,0,0,0,2.8669,2.8693,2.8716,2.8796,2.8823,2.8928,2.8932,2.8945,2.8984,2.8986,2.9067,2.9079,2.9119,2.9198,2.9215,2.9239,2.9217,2.9398,2.9401,2.9403,2.9381,2.9383,2.9385,0,0,0,0,0,2.8661,2.8705,2.8717,2.8737,2.8853,2.8929,2.8945,2.8989,2.8985,2.901,2.9058,2.9077,2.9225,2.9205,2.9224,2.9251,2.9397,2.94,2.9403,2.9381,2.9383,2.9385,0,0,0,0,0,0,2.8626,2.8716,2.8731,2.8802,2.8858,2.8937,2.8969,2.899,2.9048,2.9048,2.9101,2.9119,2.9188,2.9226,2.9202,2.9316,2.9312,2.9319,2.9288,2.9291,2.9293,2.9283,2.9222,0,0,0,0,0,2.8626,2.868,2.8756,2.8811,2.8838,2.8899,2.8934,2.8963,2.9023,2.9047,2.91,2.9158,2.9218,2.9257,2.9316,2.9387,2.9406,2.9415,2.9417,2.9418,2.9424,2.9467,2.9472,2.9414,2.9414,2.9414,0,0,2.8628,2.8684,2.8715,2.8806,2.8852,2.8908,2.8918,2.8976,2.9019,2.9056,2.9128,2.9169,2.9237,2.931,2.9344,2.9344,2.9444,2.9422,2.9422,2.9428,2.947,2.9476,2.9481,2.9416,2.9416,2.9415,0,0,2.866,2.8707,2.8759,2.8806,2.8876,2.8916,2.8929,2.9005,2.9034,2.9106,2.9137,2.9188,2.9289,2.9338,2.9376,2.9427,2.9448,2.9445,2.9455,2.9496,2.95,2.9505,2.9525,2.9532,2.945,2.945,2.945,0,2.8654,2.8738,2.8783,2.884,2.888,2.8917,2.8971,2.9014,2.9101,2.9128,2.9126,2.9256,2.9304,2.939,2.9402,2.9431,2.9449,2.9437,2.9496,2.9501,2.9506,2.9526,2.9533,2.9449,2.945,2.945,2.945,0,2.8727,2.8785,2.8819,2.8902,2.8946,2.9001,2.9056,2.9095,2.9121,2.9161,2.9236,2.9295,2.9368,2.939,2.9416,2.948,2.9478,2.9485,2.9483,2.951,2.953,2.9538,2.9449,2.9449,2.9449,2.9449,0,0,2.8742,2.8849,2.8861,2.89,2.8981,2.9027,2.9085,2.9155,2.9189,2.9247,2.9298,2.9384,2.9392,2.9435,2.9466,2.9502,2.9542,2.9506,2.9508,2.9512,2.9618,2.9613,2.9621,2.9555,2.9557,2.9558,2.9613,0,2.8785,2.8889,2.8932,2.9017,2.9072,2.9108,2.9158,2.9214,2.9254,2.9307,2.9351,2.9412,2.9417,2.9443,2.948,2.9529,2.9564,2.9525,2.9605,2.9607,2.9588,2.9631,2.9626,2.9675,2.9621,2.9622,2.9623,0,2.885,2.891,2.8999,2.9075,2.91,2.9144,2.9214,2.9264,2.9329,2.9355,2.9404,2.9434,2.9497,2.9489,2.9578,2.955,2.9586,2.9614,2.9617,2.9628,2.9618,2.9645,2.9692,2.97,2.9636,2.9635,2.9634,0,2.8854,2.8956,2.9024,2.9055,2.9145,2.9176,2.9215,2.9278,2.9319,2.938,2.9407,2.9474,2.9511,2.9563,2.9611,2.96,2.9696,2.9692,2.9722,2.9721,2.9742,2.974,2.9797,2.9761,2.9761,2.9761,2.976,0,2.8899,2.8953,2.9027,2.9068,2.913,2.918,2.924,2.9282,2.9339,2.939,2.9425,2.9472,2.9532,2.9588,2.9625,2.9695,2.9711,2.9735,2.9745,2.9733,2.973,2.9758,2.9756,2.9763,2.9762,2.9762,2.9761,0,2.8914,2.8965,2.9042,2.912,2.9142,2.9184,2.9252,2.9295,2.9336,2.9401,2.9419,2.9484,2.9552,2.9604,2.9692,2.9718,2.9792,2.9801,2.977,2.9775,2.9803,2.98,2.9881,2.9895,2.9848,2.9848,2.9848,0,2.8941,2.8983,2.9067,2.9104,2.9142,2.9201,2.9242,2.9293,2.9335,2.9413,2.9447,2.9516,2.9575,2.9682,2.9738,2.9806,2.9818,2.9842,2.9829,2.9816,2.9821,2.9819,2.9824,2.9844,2.9844,2.9844,2.9845,0,2.8983,2.9006,2.9064,2.9132,2.9181,2.9237,2.9293,2.9321,2.9383,2.9429,2.9498,2.9543,2.9634,2.9703,2.9777,2.9819,2.9843,2.9848,2.9859,2.9848,2.9829,2.9842,2.9776,2.9846,2.9846,2.9846,2.9846,2.9846,2.9006,2.9046,2.9112,2.9176,2.9224,2.9276,2.9321,2.9368,2.9426,2.9503,2.953,2.9602,2.9667,2.9769,2.9811,2.9869,2.987,2.9886,2.989,2.9893,2.9893,2.9818,2.9883,2.9883,2.9883,2.9883,2.9883,0,2.9051,2.9095,2.9154,2.9232,2.9283,2.93,2.9364,2.9406,2.9469,2.9528,2.9585,2.9666,2.9734,2.9795,2.9867,2.9902,2.9915,2.9919,2.9918,2.9927,2.9887,2.9871,2.9907,2.9907,2.9907,2.9907,2.9907,2.9907,2.9081,2.9151,2.9182,2.9276,2.9321,2.9391,2.9426,2.9476,2.9523,2.9611,2.9668,2.9708,2.9768,2.9844,2.9908,2.9925,2.995,2.9952,2.9972,2.9933,2.993,2.9927,2.9913,2.9957,2.9957,3.0008,3.0008,3.0008]}]]